Location: Attin
(50.4871°N, 1.7459°E)
Time: 11:18:11
(UTC+00:00)

Daily predictions for brighter satellites

Satellite Brightness Start Highest point End
(mag) Time Altitude Azimuth Time Altitude Azimuth Time Altitude Azimuth
USA 267 3.8 16:15:05 10° ENE 16:21:21 46° SE 16:27:36 10° SSW
SJ 16-02 2.8 16:19:57 10° NW 16:24:07 44° WSW 16:28:16 10° S
H-2A R/B 3.0 16:21:20 10° ESE 16:25:19 23° ENE 16:29:14 10° N
USA 276 4.0 16:24:55 10° W 16:27:45 32° SSW 16:30:34 10° SE
Cosmos 1763 Rocket 4.1 16:23:18 10° SSE 16:27:52 35° ESE 16:32:31 10° NE
USA 305 3.2 16:23:59 10° W 16:28:09 57° N 16:32:21 10° ENE
CZ-4B R/B 2.9 16:25:26 10° SSE 16:29:22 55° ENE 16:33:08 10° N
Cosmos 1656 3.8 16:24:09 10° NNW 16:29:43 83° WSW 16:35:19 10° SSE
Cosmos 1933 4.5 16:30:57 10° SE 16:34:15 25° E 16:37:34 10° NNE
USA 229 DEB 4.0 16:27:08 10° NW 16:34:25 85° NE 16:42:13 10° SE
USA 229 4.0 16:27:13 10° NW 16:34:31 84° NE 16:42:18 10° SE
Cosmos 1937 Rocket 3.8 16:30:53 10° NNW 16:36:03 47° ENE 16:41:11 10° SE
Cosmos 1464 Rocket 4.1 16:29:51 10° S 16:36:13 77° E 16:42:36 10° NNE
Cosmos 1500 Rocket 3.6 16:34:42 10° N 16:39:07 57° ENE 16:43:27 10° SSE
Cosmos 1666 4.3 16:37:10 10° NNE 16:39:10 14° ENE 16:41:09 10° E
SL-16 R/B 4.4 16:34:24 10° N 16:39:18 25° NW 16:44:12 10° WSW
Spot 1 4.5 16:34:50 10° NNE 16:39:27 58° ESE 16:44:19 10° S
Nadezhda 4 Rocket 4.0 16:34:32 10° N 16:40:54 78° E 16:47:14 10° SSE
SL-24 R/B - RUBIN 2 3.9 16:36:57 10° NW 16:41:28 45° NE 16:45:40 10° ESE
SeaSat 1 3.6 16:37:39 10° NNE 16:42:12 38° NW 16:46:44 10° WSW
Cosmos 2322 Rocket 3.7 16:38:50 10° N 16:42:26 17° NNE 16:45:58 10° ENE
ATLAS 2AS CENTAUR R/B 3.9 16:36:00 10° W 16:43:00 35° NNW 16:49:43 10° NE
Cosmos 990 Rocket 4.0 16:37:50 10° NNW 16:43:04 89° ENE 16:48:15 10° SSE
Cosmos 1697 Rocket 2.6 16:39:44 10° NNW 16:45:22 72° ENE 16:50:59 10° SE
FengYun 1-2 T 4.2 16:41:33 10° SSE 16:47:05 71° ENE 16:52:38 10° NNW
Cosmos 372 Rocket 4.4 16:42:17 10° NNW 16:47:13 40° ENE 16:52:08 10° SE
Cosmos 1271 Rocket 4.1 16:44:29 10° SW 16:48:13 40° WNW 16:52:01 10° N
Sich 1 3.6 16:44:49 10° N 16:48:47 35° ENE 16:52:45 10° SE
NOSS 2-1 (C) 4.3 16:46:31 10° W 16:49:24 29° NNW 16:52:32 10° NNE
Cosmos 1980 Rocket 2.5 16:44:08 10° NNW 16:49:36 46° NE 16:55:01 10° SE
NOAA 6 4.0 16:45:25 10° SSE 16:50:29 61° ENE 16:55:33 10° N
Cosmos 1805 Rocket 3.8 16:46:39 10° N 16:50:50 45° ENE 16:55:00 10° SSE
Cosmos 2369 3.8 16:45:54 10° NNW 16:51:35 57° NE 16:57:13 10° SE
Cosmos 2221 2.7 16:48:05 10° SSW 16:52:21 79° W 16:56:42 10° N
CZ-4C R/B 3.0 16:49:05 10° NW 16:55:47 56° NE 17:03:46 10° ESE
USA 234 3.4 16:50:03 10° ESE 16:56:37 83° SSW 17:03:11 10° WNW
Cosmos 1092 Rocket 4.0 16:50:28 10° N 16:56:48 63° ENE 17:03:04 10° SSE
Cosmos 1842 Rocket 3.7 16:52:46 10° SSW 16:57:14 81° W 17:01:46 10° N
Cosmos 2084 4.4 16:53:29 10° NW 16:57:41 54° SW 17:02:01 10° SSE
NOSS 3-1 (A) 4.4 16:50:37 10° NW 16:57:58 74° SW 17:06:38 10° SSE
USA 306 3.2 16:56:10 10° W 17:00:21 52° N 17:03:35 16° ENE
SL-16 R/B 3.3 16:56:10 10° NNW 17:00:39 23° NE 17:04:15 13° E
Cosmos 1812 4.1 16:58:35 10° SE 17:01:19 19° E 17:02:43 16° ENE
ISS -3.7 16:58:14 10° WNW 17:01:39 80° SSW 17:04:58 10° ESE
Meteor 1-25 Rocket 4.1 16:56:56 10° N 17:02:32 78° ENE 17:08:08 10° SSE
NOSS 2-2 (D) 4.2 16:58:47 10° NW 17:03:39 71° NE 17:10:27 10° SE
NOSS 2-2 (E) 4.3 16:58:57 10° NW 17:04:00 82° NE 17:11:08 10° SE
deb Chang Zheng 4 4.3 17:02:15 10° ESE 17:05:58 29° ENE 17:09:44 10° N
SMAP 3.0 17:01:47 10° SSE 17:06:26 81° ENE 17:11:07 10° NNW
Cosmos 2082 Rocket 3.0 17:01:56 10° SSE 17:06:51 31° ESE 17:10:43 15° NE
Meteor PRIRODA 4.5 17:03:35 10° S 17:07:09 53° W 17:10:43 10° NNW
Cosmos 1939 Rocket 2.9 17:03:32 10° SSE 17:07:40 90° NE 17:11:46 10° NNW
Cosmos 858 Rocket 4.5 17:03:16 10° NNW 17:08:37 76° ENE 17:13:53 10° SSE
CORIOLIS 4.1 17:04:02 10° SSE 17:09:26 78° ENE 17:14:53 10° NNW
Cosmos 2333 Rocket 4.0 17:08:08 10° N 17:10:50 13° NNE 17:12:25 12° NE
Cosmos 44 Rocket 3.9 17:06:16 10° NNW 17:10:52 35° NE 17:14:23 15° E
Cosmos 2278 3.9 17:10:03 10° NNW 17:15:38 51° NE 17:21:11 10° SE
CZ-4B DEB 4.1 17:10:19 10° SSE 17:15:49 77° ENE 17:21:20 10° NNW
Cosmos 1602 3.6 17:12:14 10° N 17:16:07 82° E 17:19:59 10° SSE
Cosmos 1627 Rocket 4.4 17:12:05 10° N 17:18:17 76° ENE 17:24:25 10° SSE
USA 307 3.2 17:14:58 10° WNW 17:19:10 52° N 17:21:38 23° ENE
AQUARIUS 4.2 17:15:52 10° SSE 17:20:22 88° W 17:24:53 10° NNW
Cosmos 540 Rocket 3.5 17:16:44 10° S 17:21:44 58° ESE 17:26:07 14° NNE
Cosmos 2034 Rocket 4.2 17:17:03 10° SSW 17:23:12 72° WNW 17:29:23 10° N
COSMO-SKYMED 1 3.4 17:23:24 21° NE 17:25:18 29° E 17:29:06 10° SSE
ARGOS 3.4 17:20:56 10° SE 17:26:02 44° ENE 17:31:08 10° N
Cosmos 2279 Rocket 4.3 17:21:11 10° SSE 17:26:57 43° E 17:32:45 10° NNE
COSMOS 2406 3.2 17:21:40 10° SSW 17:27:22 68° ESE 17:32:09 15° NE
SL-08 R/B 4.4 17:24:09 10° N 17:28:39 44° WNW 17:33:03 10° SW
Cosmos 1833 Rocket 2.6 17:23:02 10° SSW 17:28:40 85° ESE 17:33:42 13° NNE
Meteor 2-21 4.3 17:23:10 10° N 17:29:18 81° E 17:35:21 10° SSE
Cosmos 1782 2.7 17:26:16 10° S 17:30:13 62° E 17:33:48 12° NNE
ATLAS 5 CENTAUR R/B 2.8 17:22:14 10° NW 17:31:24 50° NNE 17:33:08 28° E
Cosmos 1633 Rocket 3.2 17:29:47 10° N 17:34:01 46° ENE 17:38:14 10° SSE
Cosmos 1818 3.7 17:29:37 10° NW 17:35:00 52° NE 17:38:50 19° ESE
ATLAS CENTAUR R/B 3.6 17:32:00 10° WNW 17:35:08 19° NNW 17:37:49 12° NNE
Cosmos 2219 Rocket 4.0 17:33:11 10° N 17:36:05 14° NNE 17:36:27 14° NNE
Cosmos 468 Rocket 4.2 17:31:13 10° SSW 17:36:22 71° WNW 17:41:29 11° NNE
YAOGAN 1 3.7 17:39:35 24° NE 17:39:35 24° NE 17:42:07 10° N
ERBS 3.5 17:37:34 10° WNW 17:40:22 27° N 17:41:01 25° NNE
GEOS 3 Rocket 3.9 17:37:58 22° E 17:41:02 48° NE 17:46:00 10° NW
CZ-2D R/B 3.3 17:37:18 10° SSE 17:41:08 82° W 17:44:59 10° NNW
USA 308 3.2 17:37:33 10° WNW 17:41:44 53° N 17:43:14 34° ENE
Cosmos 1634 Rocket 4.0 17:37:30 10° S 17:43:50 83° E 17:50:12 10° N
SJ-11-01 4.3 17:39:16 10° SSE 17:43:54 57° ENE 17:48:34 10° N
COSMOS 2455 2.9 17:38:39 10° SSW 17:44:35 63° ESE 17:48:14 24° NE
CZ-2C R/B 2.7 17:40:35 15° NNE 17:44:48 48° E 17:49:46 10° S
Cosmos 1500 3.4 17:41:53 10° NNW 17:45:38 71° W 17:49:20 10° S
PAYLOAD B 4.3 17:40:03 10° SSE 17:45:39 81° WSW 17:51:18 10° NNW
Cosmos 2026 Rocket 4.2 17:40:57 10° NNW 17:47:05 73° W 17:53:07 10° S
CZ-4B R/B 3.0 17:42:46 10° SSE 17:48:10 78° ENE 17:53:31 10° NNW
Cosmos 1151 Rocket 3.0 17:45:02 10° S 17:49:14 55° E 17:51:27 26° NNE
Lacrosse 5 rocket 1.2 17:45:45 10° NW 17:49:35 61° NNE 17:50:36 44° E
Okean O Rocket 1.5 17:47:47 10° SSE 17:52:12 66° ENE 17:56:39 10° N
CZ-4 R/B 3.5 17:59:39 15° N 17:59:39 15° N 18:00:24 10° N
Cosmos 1666 Rocket 3.6 17:55:25 10° NNW 17:59:54 84° W 18:04:19 10° S
Cosmos 2208 Rocket 4.4 17:55:25 10° S 18:00:30 44° ESE 18:01:39 39° ENE
CZ-4 R/B 4.3 17:57:24 10° SSE 18:01:31 76° ENE 18:05:40 10° N
Meteor 1-11 Rocket 3.9 17:56:31 10° N 18:01:54 45° ENE 18:05:45 19° SE
Cosmos 1470 Rocket 3.6 17:58:44 10° N 18:03:07 54° ENE 18:07:30 10° SSE
Cosmos 2150 Rocket 4.1 17:58:08 10° NNW 18:03:12 51° ENE 18:04:48 38° ESE
H-2A R/B 2.5 17:59:16 10° S 18:04:23 62° WSW 18:09:24 10° NNW
USA 267 3.3 18:01:04 29° NE 18:04:40 77° NNW 18:11:12 10° WSW
Cosmos 1655 Rocket 4.0 17:58:48 10° N 18:05:09 58° ENE 18:11:25 10° SSE
Cosmos 1328 Rocket 3.5 18:02:24 10° S 18:06:46 60° E 18:07:30 52° NE
Cosmos 2360 Rocket 3.1 18:02:40 10° NNW 18:07:10 30° NE 18:07:10 30° NE
Landsat 5 3.8 18:08:41 45° SE 18:08:41 45° SE 18:11:52 10° S
USA 305 2.9 18:04:13 10° WNW 18:08:25 59° NNE 18:08:46 57° NE
SKYMED 2 3.4 18:12:01 40° NNE 18:13:35 83° ESE 18:17:55 10° SSW
Cosmos 1666 3.1 18:11:24 10° NNW 18:15:05 59° W 18:18:44 10° S
Cosmos 2180 Rocket 4.4 18:09:18 10° S 18:15:37 73° E 18:21:53 10° NNE
Cosmos 841 Rocket 3.7 18:10:45 10° SSW 18:15:54 69° WNW 18:18:54 25° NNE
COSMOS 2428 4.5 18:13:02 10° N 18:15:41 17° NNE 18:15:41 17° NNE
Feng Yun 1-1 Rocket 4.2 18:11:43 10° SSE 18:17:38 75° ENE 18:23:29 10° NNW
Meteor 2-8 Rocket 4.3 18:13:04 10° S 18:19:11 75° E 18:25:22 10° NNE
ATLAS CENTAUR R/B 2.3 18:11:59 10° WSW 18:19:58 72° NNW 18:20:43 57° NNE
Cosmos 1125 Rocket 3.4 18:16:07 10° NNW 18:21:21 66° ENE 18:22:14 55° ESE
Cosmos 2322 Rocket 2.2 18:22:12 10° NNW 18:27:48 55° NE 18:27:48 55° NE
NOSS 3-4 (A) 4.4 18:27:27 10° NW 18:33:28 36° NNE 18:33:59 36° NNE
Cosmos 1980 Rocket 3.6 18:28:21 10° NW 18:33:31 37° WSW 18:38:37 10° S
NOSS 3-4 (C) 4.4 18:27:33 10° NW 18:33:33 36° NNE 18:34:04 36° NNE
SL-08 RB Rocket 3.9 18:30:52 10° S 18:35:30 71° WSW 18:40:08 10° NNW
ATLAS 2AS CENTAUR R/B 3.8 18:29:30 10° NW 18:36:04 30° N 18:37:26 29° NNE
Cosmos 1812 3.9 18:33:07 10° SW 18:36:46 41° WNW 18:37:47 33° NW
ISS -1.5 18:35:23 10° W 18:37:58 23° SW 18:37:58 23° SW
USA 306 3.6 18:36:19 10° WNW 18:39:35 50° NW 18:39:35 50° NW
CZ-4C R/B 3.6 18:37:36 10° NW 18:44:36 55° WSW 18:52:45 10° SSE
SL-16 R/B 2.1 18:39:51 10° NNW 18:45:34 89° ENE 18:46:11 73° SSE
Cosmos 2237 Rocket 4.4 18:46:00 10° N 18:47:00 12° N 18:47:00 12° N
Cosmos 2082 Rocket 2.8 18:45:07 10° SW 18:50:41 54° NW 18:52:35 37° N
Cosmos 44 Rocket 3.9 18:47:49 10° NW 18:52:37 52° WSW 18:53:10 50° SSW
Cosmos 2333 Rocket 3.7 18:51:36 10° NNW 18:54:26 25° N 18:54:26 25° N
USA 307 4.3 18:55:05 10° WNW 18:57:40 35° WNW 18:57:40 35° WNW
COSMO-SKYMED 1 4.0 19:00:37 32° NW 19:01:31 35° WNW 19:05:28 10° SW
ATLAS CENTAUR R/B 4.3 19:13:12 10° NNW 19:13:56 12° NNW 19:13:56 12° NNW
GEOS 3 Rocket 4.4 19:19:06 47° SW 19:19:06 47° SW 19:24:06 10° NW
Cosmos 2219 Rocket 4.0 19:16:17 10° NNW 19:18:11 20° N 19:18:11 20° N
CZ-2C R/B 4.3 19:22:06 18° NNW 19:24:54 30° WNW 19:29:20 10° WSW
Lacrosse 5 rocket 4.0 19:24:57 10° WNW 19:26:12 18° W 19:26:12 18° W
Okean O Rocket 4.4 19:26:07 10° SW 19:28:59 17° W 19:31:54 10° NW
COSMOS 2455 4.0 19:25:22 10° WSW 19:30:54 36° NW 19:31:23 36° NNW
BREEZE-M DEB (TANK) 4.4 19:27:41 10° SW 19:44:57 62° SSW 19:44:57 62° SSW
USA 267 3.9 19:48:24 47° NW 19:48:24 47° NW 19:53:38 10° WNW
Cosmos 2360 Rocket 3.9 19:46:28 10° NW 19:48:57 27° NW 19:48:57 27° NW
Cosmos 2322 Rocket 4.2 20:06:42 10° NW 20:09:40 25° WNW 20:09:40 25° WNW
ATLAS 2AS CENTAUR R/B 4.3 20:21:24 10° NW 20:24:52 28° NNW 20:24:52 28° NNW
